| time (UTC) | temp C | wind direction | speed KPH | gust KPH | rain 1hr cm | rain 24hr cm | rain mn cm | humidity % | barometer mb |
| 20260902065719 | 16 | 0.0 | 0.0 | 0.00 | 0.76 | 0.00 | 96 | 1000.5 | |
| 20260902064719 | 16 | 0.0 | 0.0 | 0.00 | 0.76 | 0.00 | 96 | 1000.4 | |
| 20260902063719 | 16 | 0.0 | 0.0 | 0.00 | 0.76 | 0.00 | 96 | 1000.2 | |
| 20260902062719 | 16 | 0.0 | 0.0 | 0.00 | 0.76 | 0.00 | 96 | 1000.0 | |
| 20260902061719 | 16 | 0.0 | 0.0 | 0.00 | 0.76 | 0.00 | 96 | 1000.0 | |
| 20260902060719 | 16 | 0.0 | 0.0 | 0.00 | 0.76 | 0.00 | 96 | 1000.0 | |
| 20260902055719 | 16 | 0.0 | 0.0 | 0.00 | 0.76 | 0.00 | 96 | 999.9 | |
| 20260902054719 | 16 | 0.0 | 0.0 | 0.00 | 0.76 | 0.00 | 96 | 999.9 | |
| 20260902053721 | 16 | 0.0 | 0.0 | 0.00 | 0.76 | 0.00 | 96 | 999.8 | |
| 20260902052719 | 16 | 0.0 | 0.0 | 0.00 | 0.76 | 0.00 | 96 | 999.6 | |
| 20260902051719 | 16 | 0.0 | 0.0 | 0.00 | 0.76 | 0.00 | 96 | 999.4 | |
| 20260902050719 | 16 | 0.0 | 0.0 | 0.00 | 0.76 | 0.00 | 96 | 999.4 | |
| 20260902045719 | 16 | 0.0 | 0.0 | 0.00 | 0.76 | 0.00 | 96 | 999.3 | |
| 20260902044719 | 16 | 0.0 | 0.0 | 0.00 | 0.76 | 0.00 | 96 | 999.2 | |
| 20260902043719 | 16 | 0.0 | 0.0 | 0.00 | 0.76 | 0.00 | 96 | 999.2 | |
| 20260902042719 | 16 | 0.0 | 0.0 | 0.00 | 0.76 | 0.00 | 96 | 999.0 | |
| 20260902041719 | 16 | 0.0 | 0.0 | 0.00 | 0.76 | 0.00 | 96 | 998.8 | |
| 20260902040718 | 16 | 0.0 | 0.0 | 0.00 | 0.76 | 0.00 | 96 | 998.7 | |
| 20260902035719 | 16 | 0.0 | 0.0 | 0.00 | 0.76 | 0.76 | 96 | 998.6 | |
| 20260902034719 | 16 | 0.0 | 0.0 | 0.00 | 0.76 | 0.76 | 96 | 998.6 | |
| 20260902033723 | 16 | 0.0 | 3.2 | 0.00 | 0.76 | 0.76 | 96 | 998.7 | |
| 20260902032719 | 16 | 0.0 | 0.0 | 0.00 | 0.76 | 0.76 | 96 | 998.8 | |
| 20260902031719 | 16 | 0.0 | 0.0 | 0.00 | 0.76 | 0.76 | 96 | 999.0 | |
| 20260902030719 | 16 | 0.0 | 0.0 | 0.00 | 0.76 | 0.76 | 96 | 998.9 | |
| 20260902025719 | 16 | 225 | 3.2 | 4.8 | 0.00 | 0.76 | 0.76 | 96 | 998.9 |
| 20260902024719 | 16 | 225 | 1.6 | 4.8 | 0.00 | 0.76 | 0.76 | 96 | 998.8 |
| 20260902023719 | 16 | 225 | 1.6 | 4.8 | 0.00 | 0.76 | 0.76 | 96 | 998.5 |
| 20260902022719 | 16 | 225 | 3.2 | 4.8 | 0.00 | 0.76 | 0.76 | 96 | 998.2 |
| 20260902021719 | 16 | 0.0 | 0.0 | 0.00 | 0.76 | 0.76 | 96 | 998.3 | |
| 20260902020719 | 16 | 0.0 | 3.2 | 0.00 | 0.76 | 0.76 | 96 | 998.5 | |
| 20260902015719 | 16 | 0.0 | 0.0 | 0.00 | 0.76 | 0.76 | 95 | 998.4 | |
| 20260902014719 | 16 | 0.0 | 0.0 | 0.00 | 0.76 | 0.76 | 95 | 998.3 | |
| 20260902013719 | 16 | 203 | 1.6 | 9.7 | 0.00 | 0.76 | 0.76 | 95 | 998.4 |
| 20260902012719 | 16 | 0.0 | 0.0 | 0.00 | 0.76 | 0.76 | 95 | 998.4 | |
| 20260902011719 | 16 | 0.0 | 0.0 | 0.00 | 0.76 | 0.76 | 95 | 998.4 | |
| 20260902010718 | 16 | 0.0 | 0.0 | 0.00 | 0.76 | 0.76 | 95 | 998.3 | |
| 20260902005719 | 16 | 0.0 | 0.0 | 0.00 | 0.76 | 0.76 | 95 | 998.3 | |
| 20260902004719 | 16 | 0.0 | 0.0 | 0.00 | 0.76 | 0.76 | 95 | 998.2 | |
| 20260902003719 | 16 | 0.0 | 0.0 | 0.00 | 0.76 | 0.76 | 95 | 998.1 | |
| 20260902002719 | 16 | 0.0 | 0.0 | 0.00 | 0.76 | 0.76 | 95 | 998.0 | |
| 20260902001719 | 17 | 0.0 | 0.0 | 0.00 | 0.76 | 0.76 | 95 | 997.7 | |
| 20260902000719 | 17 | 0.0 | 0.0 | 0.00 | 0.76 | 0.76 | 95 | 997.6 | |
| 20260901235719 | 17 | 0.0 | 0.0 | 0.00 | 0.76 | 0.76 | 95 | 997.5 | |
| 20260901234718 | 17 | 0.0 | 0.0 | 0.00 | 0.76 | 0.76 | 95 | 997.5 | |
| 20260901233719 | 17 | 0.0 | 0.0 | 0.00 | 0.76 | 0.76 | 95 | 997.4 | |
| 20260901232718 | 17 | 0.0 | 0.0 | 0.00 | 0.76 | 0.76 | 95 | 997.4 | |
| 20260901231830 | 17 | 0.0 | 0.0 | 0.00 | 0.76 | 0.76 | 95 | 997.6 | |
| 20260901231419 | 17 | 0.0 | 0.0 | 0.00 | 0.76 | 0.76 | 95 | 997.6 | |
| 20260901230419 | 17 | 0.0 | 0.0 | 0.00 | 0.76 | 0.76 | 95 | 997.4 | |
| 20260901225419 | 17 | 0.0 | 0.0 | 0.00 | 0.76 | 0.76 | 95 | 997.4 | |
| 20260901224418 | 17 | 0.0 | 0.0 | 0.00 | 0.76 | 0.76 | 95 | 997.4 | |
| 20260901223418 | 17 | 0.0 | 0.0 | 0.00 | 0.76 | 0.76 | 94 | 997.6 | |
| 20260901222418 | 17 | 0.0 | 0.0 | 0.00 | 0.76 | 0.76 | 95 | 997.7 | |
| 20260901221418 | 17 | 0.0 | 0.0 | 0.00 | 0.76 | 0.76 | 94 | 997.6 | |
| 20260901220418 | 17 | 0.0 | 0.0 | 0.03 | 0.76 | 0.76 | 94 | 997.5 | |
| 20260901215419 | 17 | 0.0 | 0.0 | 0.03 | 0.76 | 0.76 | 94 | 997.4 | |
| 20260901214525 | 17 | 0.0 | 0.0 | 0.03 | 0.76 | 0.76 | 94 | 997.3 | |
| 20260901214118 | 17 | 0.0 | 0.0 | 0.03 | 0.76 | 0.76 | 94 | 997.3 | |
| 20260901213118 | 17 | 0.0 | 0.0 | 0.03 | 0.76 | 0.76 | 95 | 997.3 | |
| 20260901212118 | 17 | 0.0 | 1.6 | 0.03 | 0.76 | 0.76 | 95 | 997.1 | |
| 20260901211118 | 17 | 0.0 | 0.0 | 0.00 | 0.74 | 0.74 | 95 | 997.1 | |
| 20260901210118 | 17 | 0.0 | 0.0 | 0.00 | 0.74 | 0.74 | 95 | 997.1 | |
| 20260901205118 | 17 | 0.0 | 0.0 | 0.00 | 0.74 | 0.74 | 95 | 997.0 | |
| 20260901204118 | 17 | 0.0 | 0.0 | 0.00 | 0.74 | 0.74 | 95 | 996.9 | |
| 20260901203118 | 17 | 0.0 | 0.0 | 0.00 | 0.74 | 0.74 | 95 | 996.8 | |
| 20260901202118 | 17 | 0.0 | 0.0 | 0.00 | 0.74 | 0.74 | 95 | 996.9 | |
| 20260901201118 | 17 | 0.0 | 0.0 | 0.00 | 0.74 | 0.74 | 95 | 996.8 | |
| 20260901200118 | 17 | 0.0 | 0.0 | 0.00 | 0.74 | 0.74 | 95 | 996.7 | |
| 20260901195118 | 17 | 0.0 | 1.6 | 0.00 | 0.74 | 0.74 | 95 | 996.8 | |
| 20260901194118 | 17 | 0.0 | 1.6 | 0.00 | 0.74 | 0.74 | 94 | 996.7 | |
| 20260901193119 | 17 | 0.0 | 1.6 | 0.03 | 0.74 | 0.74 | 95 | 996.7 | |
| 20260901192118 | 17 | 0.0 | 0.0 | 0.03 | 0.74 | 0.74 | 95 | 996.8 | |
| 20260901191118 | 17 | 0.0 | 3.2 | 0.03 | 0.74 | 0.74 | 95 | 996.8 | |
| 20260901190118 | 17 | 0.0 | 0.0 | 0.03 | 0.74 | 0.74 | 95 | 996.9 | |
| 20260901185118 | 17 | 0.0 | 0.0 | 0.03 | 0.74 | 0.74 | 95 | 997.0 | |
| 20260901184118 | 17 | 0.0 | 0.0 | 0.05 | 0.74 | 0.74 | 96 | 997.0 | |
| 20260901183118 | 17 | 0.0 | 0.0 | 0.03 | 0.71 | 0.71 | 95 | 997.0 | |
| 20260901182118 | 16 | 0.0 | 3.2 | 0.08 | 0.71 | 0.71 | 95 | 996.9 | |
| 20260901181118 | 16 | 0.0 | 0.0 | 0.10 | 0.71 | 0.71 | 95 | 996.8 | |
| 20260901180118 | 16 | 0.0 | 0.0 | 0.10 | 0.71 | 0.71 | 95 | 996.8 | |
| 20260901175118 | 16 | 0.0 | 1.6 | 0.10 | 0.71 | 0.71 | 95 | 996.8 | |
| 20260901174159 | 16 | 0.0 | 0.0 | 0.08 | 0.69 | 0.69 | 95 | 996.8 | |
| 20260901173918 | 16 | 0.0 | 0.0 | 0.08 | 0.69 | 0.69 | 95 | 996.7 | |
| 20260901173819 | 16 | 0.0 | 0.0 | 0.08 | 0.69 | 0.69 | 95 | 996.5 | |
| 20260901173817 | 16 | 0.0 | 3.2 | 0.00 | 0.61 | 0.61 | 95 | 996.7 | |
| 20260901173814 | 16 | 0.0 | 3.2 | 0.03 | 0.61 | 0.61 | 95 | 996.5 | |
| 20260901173812 | 16 | 90 | 3.2 | 12.9 | 0.03 | 0.61 | 0.61 | 95 | 996.3 |
| 20260901173810 | 16 | 113 | 4.8 | 9.7 | 0.03 | 0.61 | 0.61 | 95 | 996.0 |
| 20260901173808 | 16 | 0.0 | 0.0 | 0.00 | 0.58 | 0.58 | 95 | 996.6 |